| time (UTC) | temp F | wind direction | speed MPH | gust MPH | rain 1hr in | rain 24hr in | rain mn in | humidity % | barometer mb |
| 20260503190002 | 63 | 128 | 0.0 | 6.0 | 0.00 | 0.00 | 0.00 | 33 | 1018.1 |
| 20260503185458 | 62 | 249 | 2.0 | 14.0 | 0.00 | 0.00 | 0.00 | 31 | 1018.4 |
| 20260503184958 | 64 | 229 | 2.0 | 3.0 | 0.00 | 0.00 | 0.00 | 30 | 1017.9 |
| 20260503184454 | 63 | 20 | 0.0 | 2.0 | 0.00 | 0.00 | 0.00 | 31 | 1018.4 |
| 20260503183951 | 63 | 201 | 2.0 | 6.0 | 0.00 | 0.00 | 0.00 | 36 | 1018.4 |
| 20260503183448 | 63 | 355 | 2.0 | 7.0 | 0.00 | 0.00 | 0.00 | 33 | 1018.5 |
| 20260503182944 | 62 | 108 | 1.0 | 7.0 | 0.00 | 0.00 | 0.00 | 31 | 1018.6 |
| 20260503182444 | 61 | 335 | 0.0 | 7.0 | 0.00 | 0.00 | 0.00 | 30 | 1018.5 |
| 20260503181941 | 61 | 176 | 1.0 | 4.0 | 0.00 | 0.00 | 0.00 | 32 | 1018.8 |
| 20260503181438 | 62 | 184 | 1.0 | 3.0 | 0.00 | 0.00 | 0.00 | 36 | 1018.6 |
| 20260503180933 | 61 | 173 | 1.0 | 2.0 | 0.00 | 0.00 | 0.00 | 33 | 1018.4 |
| 20260503180432 | 60 | 211 | 3.0 | 3.0 | 0.00 | 0.00 | 0.00 | 33 | 1018.6 |
| 20260503175929 | 63 | 38 | 2.0 | 6.0 | 0.00 | 0.00 | 0.00 | 33 | 1018.6 |
| 20260503175427 | 61 | 195 | 1.0 | 2.0 | 0.00 | 0.00 | 0.00 | 35 | 1018.7 |
| 20260503174922 | 62 | 325 | 5.0 | 8.0 | 0.00 | 0.00 | 0.00 | 32 | 1018.3 |
| 20260503174420 | 62 | 161 | 1.0 | 3.0 | 0.00 | 0.00 | 0.00 | 33 | 1018.6 |
| 20260503173914 | 61 | 306 | 2.0 | 6.0 | 0.00 | 0.00 | 0.00 | 32 | 1018.8 |
| 20260503173411 | 60 | 171 | 0.0 | 2.0 | 0.00 | 0.00 | 0.00 | 39 | 1018.9 |
| 20260503172908 | 59 | 176 | 2.0 | 3.0 | 0.00 | 0.00 | 0.00 | 36 | 1018.9 |
| 20260503172406 | 60 | 184 | 2.0 | 3.0 | 0.00 | 0.00 | 0.00 | 33 | 1018.8 |
| 20260503171901 | 61 | 2 | 3.0 | 6.0 | 0.00 | 0.00 | 0.00 | 34 | 1018.9 |
| 20260503171358 | 60 | 193 | 2.0 | 3.0 | 0.00 | 0.00 | 0.00 | 33 | 1019.0 |
| 20260503170856 | 60 | 60 | 3.0 | 4.0 | 0.00 | 0.00 | 0.00 | 33 | 1019.2 |
| 20260503170352 | 59 | 187 | 1.0 | 4.0 | 0.00 | 0.00 | 0.00 | 35 | 1019.3 |
| 20260503150744 | 55 | 8 | 1.0 | 8.0 | 0.00 | 0.00 | 0.00 | 36 | 1019.8 |
| 20260503150240 | 56 | 188 | 2.0 | 8.0 | 0.00 | 0.00 | 0.00 | 38 | 1020.0 |
| 20260503140205 | 53 | 209 | 2.0 | 3.0 | 0.00 | 0.00 | 0.00 | 35 | 1019.8 |
| 20260503131134 | 51 | 313 | 7.0 | 11.0 | 0.00 | 0.00 | 0.00 | 50 | 1019.8 |
| 20260503130632 | 51 | 143 | 2.0 | 14.0 | 0.00 | 0.00 | 0.00 | 52 | 1020.0 |
| 20260503130129 | 51 | 344 | 3.0 | 7.0 | 0.00 | 0.00 | 0.00 | 53 | 1019.7 |
| 20260503110517 | 43 | 160 | 0.0 | 1.0 | 0.00 | 0.00 | 0.00 | 69 | 1018.8 |
| 20260503090403 | 47 | 124 | 1.0 | 2.0 | 0.00 | 0.00 | 0.00 | 60 | 1016.8 |
| 20260503081330 | 48 | 22 | 3.0 | 3.0 | 0.00 | 0.00 | 0.00 | 58 | 1016.3 |
| 20260503080826 | 48 | 94 | 0.0 | 1.0 | 0.00 | 0.00 | 0.00 | 59 | 1016.3 |
| 20260503080323 | 48 | 251 | 2.0 | 4.0 | 0.00 | 0.00 | 0.00 | 58 | 1016.4 |
| 20260503072759 | 49 | 121 | 1.0 | 3.0 | 0.00 | 0.00 | 0.00 | 56 | 1016.0 |
| 20260503072257 | 50 | 37 | 4.0 | 8.0 | 0.00 | 0.00 | 0.00 | 56 | 1015.8 |
| 20260503071752 | 50 | 17 | 3.0 | 4.0 | 0.00 | 0.00 | 0.00 | 56 | 1015.7 |
| 20260503071250 | 50 | 165 | 1.0 | 3.0 | 0.00 | 0.00 | 0.00 | 56 | 1015.7 |
| 20260503070746 | 50 | 322 | 2.0 | 6.0 | 0.00 | 0.00 | 0.00 | 57 | 1015.7 |
| 20260503070244 | 50 | 126 | 0.0 | 4.0 | 0.00 | 0.00 | 0.00 | 57 | 1015.6 |
| 20260503060209 | 51 | 41 | 4.0 | 4.0 | 0.00 | 0.00 | 0.00 | 58 | 1015.1 |
| 20260503054656 | 51 | 240 | 2.0 | 9.0 | 0.00 | 0.00 | 0.00 | 57 | 1015.0 |
| 20260503054153 | 52 | 93 | 0.0 | 3.0 | 0.00 | 0.00 | 0.00 | 57 | 1014.9 |
| 20260503053651 | 52 | 359 | 4.0 | 7.0 | 0.00 | 0.00 | 0.00 | 57 | 1015.2 |
| 20260503053150 | 52 | 136 | 0.0 | 3.0 | 0.00 | 0.00 | 0.00 | 57 | 1015.1 |
| 20260503052645 | 52 | 271 | 2.0 | 2.0 | 0.00 | 0.00 | 0.00 | 57 | 1015.3 |
| 20260503052142 | 52 | 113 | 0.0 | 2.0 | 0.00 | 0.00 | 0.00 | 57 | 1015.0 |
| 20260503051637 | 52 | 251 | 2.0 | 4.0 | 0.00 | 0.00 | 0.00 | 57 | 1015.2 |
| 20260503051135 | 52 | 358 | 2.0 | 7.0 | 0.00 | 0.00 | 0.00 | 58 | 1015.1 |
| 20260503050632 | 52 | 168 | 1.0 | 2.0 | 0.00 | 0.00 | 0.00 | 59 | 1015.0 |
| 20260503050128 | 52 | 21 | 1.0 | 3.0 | 0.00 | 0.00 | 0.00 | 59 | 1015.0 |
| 20260503045626 | 52 | 154 | 0.0 | 1.0 | 0.00 | 0.00 | 0.00 | 60 | 1014.9 |
| 20260503045123 | 52 | 158 | 0.0 | 0.0 | 0.00 | 0.00 | 0.00 | 59 | 1014.9 |
| 20260503044619 | 52 | 152 | 0.0 | 2.0 | 0.00 | 0.00 | 0.00 | 58 | 1014.9 |
| 20260503044117 | 52 | 268 | 2.0 | 2.0 | 0.00 | 0.00 | 0.00 | 59 | 1014.8 |
| 20260503043613 | 52 | 132 | 0.0 | 3.0 | 0.00 | 0.00 | 0.00 | 59 | 1014.8 |
| 20260503043110 | 52 | 36 | 1.0 | 2.0 | 0.00 | 0.00 | 0.00 | 59 | 1014.7 |
| 20260503042607 | 52 | 144 | 0.0 | 1.0 | 0.00 | 0.00 | 0.00 | 60 | 1015.0 |
| 20260503042103 | 52 | 149 | 0.0 | 0.0 | 0.00 | 0.00 | 0.00 | 60 | 1014.9 |
| 20260503041600 | 52 | 114 | 0.0 | 0.0 | 0.00 | 0.00 | 0.00 | 60 | 1014.9 |
| 20260503041058 | 52 | 126 | 0.0 | 0.0 | 0.00 | 0.00 | 0.00 | 60 | 1014.9 |
| 20260503040554 | 52 | 149 | 0.0 | 0.0 | 0.00 | 0.00 | 0.00 | 60 | 1014.8 |
| 20260503040052 | 52 | 151 | 0.0 | 1.0 | 0.00 | 0.00 | 0.00 | 60 | 1015.0 |
| 20260503035548 | 52 | 152 | 0.0 | 1.0 | 0.00 | 0.00 | 0.00 | 60 | 1014.8 |
| 20260503035046 | 52 | 152 | 0.0 | 1.0 | 0.00 | 0.00 | 0.00 | 62 | 1014.9 |
| 20260503034543 | 52 | 131 | 0.0 | 0.0 | 0.00 | 0.00 | 0.00 | 62 | 1014.8 |
| 20260503034040 | 52 | 145 | 0.0 | 0.0 | 0.00 | 0.00 | 0.00 | 62 | 1014.8 |
| 20260503033537 | 52 | 155 | 0.0 | 0.0 | 0.00 | 0.00 | 0.00 | 63 | 1014.9 |
| 20260503033035 | 52 | 154 | 0.0 | 0.0 | 0.00 | 0.00 | 0.00 | 63 | 1014.8 |
| 20260503032533 | 52 | 150 | 0.0 | 0.0 | 0.00 | 0.00 | 0.00 | 63 | 1014.8 |
| 20260503032031 | 52 | 152 | 0.0 | 0.0 | 0.00 | 0.00 | 0.00 | 63 | 1014.8 |
| 20260503031529 | 52 | 152 | 0.0 | 0.0 | 0.00 | 0.00 | 0.00 | 63 | 1014.9 |
| 20260503031026 | 52 | 141 | 0.0 | 0.0 | 0.00 | 0.00 | 0.00 | 63 | 1014.7 |
| 20260503030522 | 52 | 151 | 0.0 | 0.0 | 0.00 | 0.00 | 0.00 | 63 | 1014.8 |
| 20260503030019 | 52 | 149 | 0.0 | 0.0 | 0.00 | 0.00 | 0.00 | 64 | 1014.7 |
| 20260503025515 | 52 | 155 | 0.0 | 0.0 | 0.00 | 0.00 | 0.00 | 65 | 1014.8 |
| 20260503025014 | 52 | 157 | 0.0 | 0.0 | 0.00 | 0.00 | 0.00 | 64 | 1015.0 |
| 20260503024509 | 51 | 153 | 0.0 | 0.0 | 0.00 | 0.00 | 0.00 | 66 | 1014.8 |
| 20260503024007 | 51 | 149 | 0.0 | 0.0 | 0.00 | 0.00 | 0.00 | 69 | 1014.8 |
| 20260503023503 | 51 | 149 | 0.0 | 0.0 | 0.00 | 0.00 | 0.00 | 69 | 1014.8 |
| 20260503023000 | 51 | 146 | 0.0 | 0.0 | 0.00 | 0.00 | 0.00 | 70 | 1014.8 |
| 20260503022456 | 51 | 152 | 0.0 | 0.0 | 0.00 | 0.00 | 0.00 | 71 | 1014.6 |
| 20260503021951 | 51 | 152 | 0.0 | 0.0 | 0.00 | 0.00 | 0.00 | 73 | 1014.7 |
| 20260503021448 | 51 | 152 | 0.0 | 0.0 | 0.00 | 0.00 | 0.00 | 72 | 1014.6 |
| 20260503020946 | 51 | 152 | 0.0 | 0.0 | 0.00 | 0.00 | 0.00 | 72 | 1014.6 |
| 20260503020443 | 51 | 152 | 0.0 | 0.0 | 0.00 | 0.00 | 0.00 | 72 | 1014.5 |
| 20260503015939 | 51 | 153 | 0.0 | 0.0 | 0.00 | 0.00 | 0.00 | 74 | 1014.6 |
| 20260503015436 | 51 | 152 | 0.0 | 0.0 | 0.00 | 0.00 | 0.00 | 73 | 1014.7 |
| 20260503014932 | 51 | 152 | 0.0 | 0.0 | 0.00 | 0.00 | 0.00 | 73 | 1014.6 |
| 20260503014429 | 51 | 152 | 0.0 | 0.0 | 0.00 | 0.00 | 0.00 | 72 | 1014.6 |
| 20260503013928 | 51 | 152 | 0.0 | 0.0 | 0.00 | 0.00 | 0.00 | 72 | 1014.2 |
| 20260503013424 | 51 | 154 | 0.0 | 0.0 | 0.00 | 0.00 | 0.00 | 72 | 1014.5 |
| 20260503012922 | 51 | 151 | 0.0 | 0.0 | 0.00 | 0.00 | 0.00 | 71 | 1014.4 |
| 20260503012420 | 51 | 149 | 0.0 | 0.0 | 0.00 | 0.00 | 0.00 | 70 | 1014.4 |
| 20260503011915 | 51 | 149 | 0.0 | 0.0 | 0.00 | 0.00 | 0.00 | 70 | 1014.4 |
| 20260503011412 | 51 | 149 | 0.0 | 0.0 | 0.00 | 0.00 | 0.00 | 70 | 1014.4 |
| 20260503010909 | 51 | 149 | 0.0 | 0.0 | 0.00 | 0.00 | 0.00 | 70 | 1014.3 |
| 20260503010406 | 51 | 136 | 0.0 | 0.0 | 0.00 | 0.00 | 0.00 | 70 | 1014.4 |
| 20260503005903 | 51 | 152 | 0.0 | 0.0 | 0.00 | 0.00 | 0.00 | 69 | 1014.5 |
| 20260503005401 | 51 | 152 | 0.0 | 0.0 | 0.00 | 0.00 | 0.00 | 69 | 1014.4 |
| 20260503004856 | 51 | 152 | 0.0 | 0.0 | 0.00 | 0.00 | 0.00 | 70 | 1014.1 |
| 20260503004354 | 51 | 149 | 0.0 | 0.0 | 0.00 | 0.00 | 0.00 | 67 | 1014.0 |
| 20260503003852 | 51 | 152 | 0.0 | 0.0 | 0.00 | 0.00 | 0.00 | 69 | 1014.0 |
| 20260503003348 | 51 | 151 | 0.0 | 0.0 | 0.00 | 0.00 | 0.00 | 68 | 1014.0 |
| 20260503002845 | 51 | 155 | 0.0 | 0.0 | 0.00 | 0.00 | 0.00 | 66 | 1013.9 |
| 20260503002343 | 52 | 149 | 0.0 | 0.0 | 0.00 | 0.00 | 0.00 | 65 | 1013.8 |
| 20260503001839 | 52 | 152 | 0.0 | 0.0 | 0.00 | 0.00 | 0.00 | 64 | 1014.0 |
| 20260503001335 | 53 | 152 | 0.0 | 0.0 | 0.00 | 0.00 | 0.00 | 64 | 1013.9 |
| 20260503000833 | 53 | 148 | 0.0 | 0.0 | 0.00 | 0.00 | 0.00 | 61 | 1013.7 |
| 20260503000330 | 54 | 150 | 0.0 | 0.0 | 0.00 | 0.00 | 0.00 | 60 | 1013.6 |
| 20260502235827 | 54 | 146 | 0.0 | 0.0 | 0.00 | 0.00 | 0.00 | 59 | 1013.4 |
| 20260502235324 | 55 | 151 | 0.0 | 0.0 | 0.00 | 0.00 | 0.00 | 59 | 1013.3 |
| 20260502234821 | 55 | 150 | 0.0 | 0.0 | 0.00 | 0.00 | 0.00 | 58 | 1013.5 |
| 20260502234318 | 55 | 157 | 0.0 | 0.0 | 0.00 | 0.00 | 0.00 | 59 | 1013.4 |
| 20260502233814 | 55 | 157 | 0.0 | 0.0 | 0.00 | 0.00 | 0.00 | 57 | 1013.4 |
| 20260502233311 | 56 | 156 | 0.0 | 0.0 | 0.00 | 0.00 | 0.00 | 55 | 1013.3 |
| 20260502232808 | 56 | 156 | 0.0 | 0.0 | 0.00 | 0.00 | 0.00 | 54 | 1013.2 |
| 20260502232305 | 56 | 156 | 0.0 | 0.0 | 0.00 | 0.00 | 0.00 | 53 | 1013.0 |
| 20260502231800 | 57 | 158 | 0.0 | 0.0 | 0.00 | 0.00 | 0.00 | 52 | 1013.0 |
| 20260502231258 | 57 | 153 | 0.0 | 0.0 | 0.00 | 0.00 | 0.00 | 50 | 1012.9 |
| 20260502230756 | 57 | 165 | 0.0 | 0.0 | 0.00 | 0.00 | 0.00 | 50 | 1012.9 |
| 20260502230254 | 58 | 150 | 0.0 | 0.0 | 0.00 | 0.00 | 0.00 | 48 | 1012.9 |
| 20260502225750 | 58 | 156 | 0.0 | 0.0 | 0.00 | 0.00 | 0.00 | 49 | 1012.9 |
| 20260502225247 | 58 | 144 | 0.0 | 0.0 | 0.00 | 0.00 | 0.00 | 47 | 1012.6 |
| 20260502224744 | 59 | 183 | 1.0 | 3.0 | 0.00 | 0.00 | 0.00 | 45 | 1012.9 |
| 20260502224241 | 59 | 152 | 0.0 | 0.0 | 0.00 | 0.00 | 0.00 | 47 | 1012.8 |
| 20260502223738 | 59 | 147 | 0.0 | 0.0 | 0.00 | 0.00 | 0.00 | 48 | 1012.8 |
| 20260502223236 | 58 | 156 | 0.0 | 0.0 | 0.00 | 0.00 | 0.00 | 46 | 1012.6 |
| 20260502222734 | 58 | 158 | 0.0 | 1.0 | 0.00 | 0.00 | 0.00 | 48 | 1012.7 |
| 20260502222230 | 58 | 160 | 0.0 | 1.0 | 0.00 | 0.00 | 0.00 | 47 | 1012.8 |
| 20260502221726 | 58 | 12 | 2.0 | 3.0 | 0.00 | 0.00 | 0.00 | 44 | 1012.9 |
| 20260502221223 | 58 | 38 | 2.0 | 3.0 | 0.00 | 0.00 | 0.00 | 45 | 1013.0 |
| 20260502220719 | 59 | 142 | 1.0 | 1.0 | 0.00 | 0.00 | 0.00 | 45 | 1013.3 |
| 20260502220215 | 59 | 108 | 0.0 | 4.0 | 0.00 | 0.00 | 0.00 | 45 | 1013.1 |
| 20260502215712 | 59 | 123 | 4.0 | 7.0 | 0.00 | 0.00 | 0.00 | 44 | 1013.1 |
| 20260502215203 | 59 | 82 | 2.0 | 6.0 | 0.00 | 0.00 | 0.00 | 44 | 1013.1 |
| 20260502214701 | 59 | 145 | 0.0 | 4.0 | 0.00 | 0.00 | 0.00 | 46 | 1013.1 |
| 20260502214158 | 59 | 135 | 0.0 | 1.0 | 0.00 | 0.00 | 0.00 | 46 | 1013.2 |
| 20260502213655 | 59 | 138 | 2.0 | 6.0 | 0.00 | 0.00 | 0.00 | 44 | 1013.0 |
| 20260502213152 | 59 | 172 | 0.0 | 4.0 | 0.00 | 0.00 | 0.00 | 45 | 1013.0 |
| 20260502212651 | 59 | 277 | 4.0 | 4.0 | 0.00 | 0.00 | 0.00 | 44 | 1013.1 |
| 20260502212149 | 60 | 79 | 1.0 | 1.0 | 0.00 | 0.00 | 0.00 | 44 | 1013.0 |
| 20260502211644 | 60 | 170 | 0.0 | 3.0 | 0.00 | 0.00 | 0.00 | 46 | 1012.8 |
| 20260502211141 | 61 | 151 | 0.0 | 2.0 | 0.00 | 0.00 | 0.00 | 42 | 1012.9 |
| 20260502210638 | 62 | 183 | 0.0 | 3.0 | 0.00 | 0.00 | 0.00 | 41 | 1012.9 |
| 20260502210135 | 61 | 313 | 1.0 | 3.0 | 0.00 | 0.00 | 0.00 | 43 | 1012.9 |
| 20260502205632 | 61 | 186 | 1.0 | 4.0 | 0.00 | 0.00 | 0.00 | 43 | 1012.7 |
| 20260502205129 | 61 | 37 | 2.0 | 3.0 | 0.00 | 0.00 | 0.00 | 44 | 1012.8 |
| 20260502204626 | 59 | 184 | 0.0 | 2.0 | 0.00 | 0.00 | 0.00 | 45 | 1012.6 |
| 20260502204124 | 60 | 247 | 2.0 | 3.0 | 0.00 | 0.00 | 0.00 | 44 | 1012.8 |
| 20260502203621 | 60 | 116 | 0.0 | 3.0 | 0.00 | 0.00 | 0.00 | 45 | 1012.9 |
| 20260502203119 | 60 | 61 | 2.0 | 2.0 | 0.00 | 0.00 | 0.00 | 43 | 1013.0 |
| 20260502202613 | 60 | 153 | 0.0 | 1.0 | 0.00 | 0.00 | 0.00 | 43 | 1013.1 |
| 20260502202106 | 60 | 303 | 3.0 | 3.0 | 0.00 | 0.00 | 0.00 | 42 | 1013.0 |
| 20260502201602 | 60 | 163 | 0.0 | 3.0 | 0.00 | 0.00 | 0.00 | 42 | 1013.1 |
| 20260502201058 | 60 | 323 | 2.0 | 2.0 | 0.00 | 0.00 | 0.00 | 43 | 1013.0 |
| 20260502200554 | 60 | 192 | 0.0 | 1.0 | 0.00 | 0.00 | 0.00 | 43 | 1013.0 |
| 20260502200052 | 60 | 11 | 3.0 | 4.0 | 0.00 | 0.00 | 0.00 | 41 | 1013.0 |
| 20260502195550 | 61 | 149 | 1.0 | 2.0 | 0.00 | 0.00 | 0.00 | 42 | 1013.2 |
| 20260502195046 | 61 | 158 | 0.0 | 2.0 | 0.00 | 0.00 | 0.00 | 42 | 1013.0 |
| 20260502194543 | 60 | 170 | 1.0 | 2.0 | 0.00 | 0.00 | 0.00 | 45 | 1013.2 |
| 20260502194039 | 61 | 74 | 1.0 | 6.0 | 0.00 | 0.00 | 0.00 | 42 | 1013.2 |
| 20260502193536 | 61 | 78 | 2.0 | 7.0 | 0.00 | 0.00 | 0.00 | 42 | 1013.5 |
| 20260502193033 | 61 | 322 | 2.0 | 2.0 | 0.00 | 0.00 | 0.00 | 42 | 1013.5 |
| 20260502192528 | 61 | 334 | 3.0 | 6.0 | 0.00 | 0.00 | 0.00 | 42 | 1013.4 |
| 20260502192026 | 61 | 246 | 2.0 | 4.0 | 0.00 | 0.00 | 0.00 | 43 | 1013.6 |
| 20260502191523 | 60 | 160 | 0.0 | 8.0 | 0.00 | 0.00 | 0.00 | 45 | 1013.6 |
| 20260502191021 | 60 | 161 | 1.0 | 4.0 | 0.00 | 0.00 | 0.00 | 43 | 1013.7 |
| 20260502190518 | 59 | 147 | 2.0 | 2.0 | 0.00 | 0.00 | 0.00 | 43 | 1013.6 |